Location: Unspecified
(0.0000°N, 0.0000°E)
Time: 19:02:39
(UTC+00:00)

Vanguard 2 Rocket - Pass Details

Date: 22 November 2019
Orbit: 554 x 3326 km, 32.9° (Epoch: 09 December)

Event Time Altitude Azimuth Distance (km) Brightness Sun altitude
Rises 17:58:17 0° 226° (SW) 6,442 12.7 -2.9°
Reaches altitude 10° 18:03:35 10° 219° (SW) 4,989 11.8 -4.1°
Maximum altitude 18:15:26 40° 154° (SSE) 2,161 8.8 -6.9°
Drops below altitude 10° 18:22:24 10° 86° (E) 2,959 8.9 -8.5°
Enters shadow 18:22:41 - 85° (E) 3,038 9.0 -8.6°
